Location: Santa Cristina
(46.5667°N, 11.7167°E)
Time: 04:57:09
(UTC+00:00)

Cosmos 1470 - Pass Details

Date: 21 April 2021
Orbit: 519 x 543 km, 82.5° (Epoch: 10 May)

Event Time Altitude Azimuth Distance (km) Brightness Sun altitude
Rises 02:41:17 0° 358° (N) 2,657 6.8 -15.1°
Reaches altitude 10° 02:43:33 10° 7° (N) 1,764 6.0 -14.8°
Maximum altitude 02:47:09 36° 75° (ENE) 835 4.4 -14.3°
Drops below altitude 10° 02:50:44 10° 144° (SE) 1,753 5.4 -13.8°
Sets 02:52:59 0° 153° (SSE) 2,639 6.2 -13.5°
